Regional Weather Roundup
Issued by NWS

Home | Current Version | Previous Version | Text Only | Print | Product List | Glossary Off
Versions: 1 2 3 4 5 6 7 8 9 10 11 12 13 14 15 16 17 18 19 20 21 22 23 24 25 26 27

000
ASUS45 KTFX 161410
RWRMT
MONTANA REGIONAL WEATHER ROUNDUP
NATIONAL WEATHER SERVICE GREAT FALLS MT
800 AM MDT MON OCT 16 2017

NOTE: "FAIR" INDICATES FEW OR NO CLOUDS BELOW 12000 FEET WITH NO
SIGNIFICANT WEATHER AND/OR OBSTRUCTIONS TO VISIBILITY.

MTZ001>007-043-161500-
WEST OF THE DIVIDE

CITY           SKY/WX    TMP DP  RH WIND       PRES   REMARKS
KALISPELL      FOG       27  27 100 CALM      30.24F VSB<1/4
MISSOULA       CLEAR     28  26  92 MISG      30.30R
BUTTE          CLOUDY    26  22  84 S3        30.30R
MULLAN PASS    CLEAR     37  18  46 SW8       30.27R WCI  31
ANACONDA         N/A     36  25  64 SW5       30.28S
DEER LODGE       N/A     30  25  80 W5        30.29S
EUREKA           N/A     39  30  70 MISG      30.19F
HAMILTON         N/A     39  25  56 SE9       30.29F
LIBBY            N/A     27  27 100 CALM      30.26R
$$

MTZ008-052>055-161500-
SOUTHWEST MONTANA

CITY           SKY/WX    TMP DP  RH WIND       PRES   REMARKS
BOZEMAN        CLOUDY    32  26  78 CALM      30.27R
DILLON         CLOUDY    38  18  44 S13       30.30S WCI  30
W YELLOWSTONE  CLOUDY    16  16 100 CALM      30.42R
ENNIS          CLOUDY    36  21  55 S14       30.36S WCI  27
$$

MTZ009-010-012-014-046-048-049-054-161500-
EAST SLOPES AND CENTRAL MONTANA

CITY           SKY/WX    TMP DP  RH WIND       PRES   REMARKS
CUT BANK       PTCLDY    48  23  37 W24G30    30.05R
GREAT FALLS    CLEAR     51  19  28 SW18      30.10R
MALMSTROM AFB  PTCLDY    52  20  28 SW22G29   30.10S
HELENA         CLOUDY    38  30  73 SE5       30.21S
$$

MTZ011-013-016-021-045-047-050-051-161500-
NORTH CENTRAL MONTANA

CITY           SKY/WX    TMP DP  RH WIND       PRES   REMARKS
HAVRE          CLEAR     45  32  60 SW16      30.00R
LEWISTOWN      CLOUDY    49  26  41 SW10      30.10R
N BAR RANCH      N/A     54  21  28 W15G22    30.11R
CHINOOK          N/A     43  32  65 NW6       29.98S
$$

MTZ017>020-022>027-061-062-161500-
NORTHEAST MONTANA

CITY           SKY/WX    TMP DP  RH WIND       PRES   REMARKS
GLASGOW        CLOUDY    40  33  76 NW5       29.97R
JORDAN           N/A     39  32  76 W3        30.01R
SIDNEY         CLOUDY    40  32  73 S9        29.97S
WOLF POINT     CLOUDY    33  30  88 S3        29.97R
MALTA          CLEAR     34  30  86 W6        29.99R WCI  29
PLENTYWOOD       N/A     46  34  61 W15       29.89F
POPLAR           N/A     37  30  75 CALM      29.96S
$$

MTZ028>42-056>058-161500-
SOUTHCENTRAL AND SOUTHEAST MONTANA

CITY           SKY/WX    TMP DP  RH WIND       PRES   REMARKS
BAKER          CLOUDY    46  30  53 W9        30.06R
BILLINGS       PTCLDY    46  28  49 SW14      30.12S
LIVINGSTON     CLOUDY    50  21  32 SW30G39   30.19R
MILES CITY     CLOUDY    39  30  70 S6        30.06R
FORSYTH          N/A     48  27  43 W7        30.05S
$$

REGIONAL REPORTS...DAKOTAS

CITY           SKY/WX    TMP DP  RH WIND       PRES   REMARKS
WILLISTON      CLOUDY    40  32  73 SW7       29.94S
MINOT          CLEAR     47  32  56 SW13      29.89S
DICKINSON      CLOUDY    47  29  49 W14       29.98F
BEACH            N/A     46  27  46 SW13G18   30.04S
CROSBY           N/A     41  32  70 SW16      29.87S
TIOGA            N/A     45  32  61 W16G22    29.91F
BISMARCK       CLEAR     42  31  64 W3        30.00F
GRAND FORKS    MOSUNNY   37  32  82 S13       29.99F WCI  29
FARGO          SUNNY     38  32  79 S10       30.08F WCI  31
BUFFALO SD       N/A     46  28  49 W9        30.00F
RAPID CITY     CLOUDY    39  29  67 CALM      30.11F
$$

REGIONAL REPORTS...WYOMING/IDAHO/WASHINGTON

CITY           SKY/WX    TMP DP  RH WIND       PRES   REMARKS
GILLETTE       CLOUDY    44  28  53 S5        30.14F
SHERIDAN       CLOUDY    31  25  78 CALM      30.13S
BUFFALO WY     CLOUDY    47  17  30 W12       30.17R
CODY           CLOUDY    54  12  18 W10G17    30.23F
YELLOWSTONE LA   N/A     19  18  95 NW3       30.43F
IDAHO FALLS    CLOUDY    26  23  88 N7        30.41R WCI  18
SALMON         CLOUDY    22  20  92 CALM      30.42R
BOISE          CLEAR     38  25  59 SE6       30.37R
SPOKANE        PTCLDY    38  33  82 E5        30.25S
$$

REGIONAL REPORTS...ALBERTA

CITY           SKY/WX    TMP DP  RH WIND       PRES   REMARKS
EDMONTON       CLEAR     41  32  70 SW8       29.83R
CALGARY        MOCLDY    48  25  40 SW8       29.89F
LETHBRIDGE     PTCLDY    52  30  43 W33G44    29.92S
MEDICINE HAT   PTCLDY    39  32  75 S9        29.93R
$$

REGIONAL REPORTS...SASKATCHEWAN

CITY           SKY/WX    TMP DP  RH WIND       PRES   REMARKS
SWIFT CURRENT  CLEAR     43  32  65 W16       29.89R
REGINA         PTCLDY    34  30  86 W9        29.82R WCI  26
SASKATOON      PTCLDY    32  28  86 SW10      29.81R WCI  24
$$




USA.gov is the U.S. government's official web portal to all federal, state and local government web resources and services.